Location: Asis
(14.1331°N, 120.9056°E)
Time: 14:46:52
(UTC+00:00)

SL-4 R/B - Pass Details

Date: 15 January 2026
Orbit: 383 x 518 km, 51.6° (Epoch: 14 February)

Event Time Altitude Azimuth Distance (km) Brightness Sun altitude
Rises 10:45:54 0° 333° (NNW) 2,578 5.6 -14.2°
Reaches altitude 10° 10:48:14 10° 341° (NNW) 1,675 4.5 -14.7°
Maximum altitude 10:51:47 38° 51° (NE) 731 2.2 -15.6°
Enters shadow 10:52:43 32° 87° (E) 826 2.4 -15.8°
